Погода в Пробе

Россия / Санкт-Петербург и Ленинградская область     60°05′55″N   30°46′54″E
В апреле 2022 года жителям России запретили посещать сайт meteo.paraplan.net по решению Генеральной прокуратуры. Аудитория сайта уменьшилась в 10 раз. Владельцы сайта не видят смысла в поддержке погодного сервера в таких условиях. Сайт будет закрыт в октябре.
темп.,
°C
ветер,
м/с
пор.,
м/с
влажн.,
%
обл.,
%
осадки,
мм/ч
давл.,
гПа
погр.,
м
4 октября, вт
вт400:00+8св61295100 8.6 999823
03:00+9вюв31097100 9.9 998741
06:00+5всв279480 0.1 1001194
09:00+7всв379194 0.1 1001427
12:00+8вюв389088 0.8 1002635
15:00+8в3692100 0.9 1004452
18:00+7вюв2594100 0.3 1005245
21:00+6ююв129459 0.3 100657
5 октября, ср
ср500:00+5ю129570 0.0 100853
03:00+6ю129586 0.0 100854
06:00+6ю139572 0.0 1009110
09:00+6ю259379 0.0 1010200
12:00+7ююз2692100 0.0 1010345
15:00+8ююз2593100 0.1 1011225
18:00+8зюз119398 0.0 101125
21:00+7ююз2693100 0.0 1011191
6 октября, чт
чт600:00+8ю3794100 0.1 1012248
03:00+7ю389727 0.1 1011207
06:00+8ю31097100 0.0 1010281
09:00+10ю41298100 0.0 1008462
12:00+12ююз61288100 0.0 1006786
15:00+14юз5107899 0.0 10051065
18:00+13юз51488100 1.0 10031074
21:00+11з7158383 5.4 10051179
7 октября, пт
пт700:00+11зюз7158398 0.1 10061181
03:00+11зюз7158196 0.4 10071326
06:00+11зюз7148367 0.6 10081230
09:00+11зюз8157882 2.2 10081326
12:00+12з7167912 1.1 10101473
15:00+12з714761 1.2 10121179
18:00+10з6138215 0.0 1014899
21:00+9юз31190100 0.0 1015477
8 октября, сб
сб800:00+9юз41388100 0.0 1015541
03:00+10юз51287100 0.0 1013801
06:00+10ююз5128897 0.0 1012744
09:00+9ююз51483100 0.0 1011721
12:00+12ююз6136639 0.0 1009939
15:00+13ююз6136496 0.0 10071153
18:00+12ююз6137096 0.0 10061048
21:00+11юз51385100 1.0 1006948